"Time","Value","Approval","myLocation"
"2023-05-06 00:00",22.1435768118646,"Approved","OW438"
"2023-05-06 01:00",22.1205804495849,"Approved","OW438"
"2023-05-06 02:00",22.1025840873053,"Approved","OW438"
"2023-05-06 03:00",22.0925877250257,"Approved","OW438"
"2023-05-06 04:00",22.089591362746,"Approved","OW438"
"2023-05-06 05:00",22.0915950004664,"Approved","OW438"
"2023-05-06 06:00",22.0995986381867,"Approved","OW438"
"2023-05-06 07:00",22.1036022759071,"Approved","OW438"
"2023-05-06 08:00",22.1016059136275,"Approved","OW438"
"2023-05-06 09:00",22.0926095513478,"Approved","OW438"
"2023-05-06 10:00",22.0846131890682,"Approved","OW438"
"2023-05-06 11:00",22.0696168267885,"Approved","OW438"
"2023-05-06 12:00",22.0556204645089,"Approved","OW438"
"2023-05-06 13:00",22.0466241022293,"Approved","OW438"
"2023-05-06 14:00",22.0486277399496,"Approved","OW438"
"2023-05-06 15:00",22.05863137767,"Approved","OW438"
"2023-05-06 16:00",22.0746350153904,"Approved","OW438"
"2023-05-06 17:00",22.0906386531107,"Approved","OW438"
"2023-05-06 18:00",22.1156422908311,"Approved","OW438"
"2023-05-06 19:00",22.1356459285514,"Approved","OW438"
"2023-05-06 20:00",22.1446495662718,"Approved","OW438"
"2023-05-06 21:00",22.1446532039922,"Approved","OW438"
"2023-05-06 22:00",22.1376568417125,"Approved","OW438"
"2023-05-06 23:00",22.1216604794329,"Approved","OW438"
"2023-05-07 00:00",22.0946641171533,"Approved","OW438"
"2023-05-07 01:00",22.0686677548736,"Approved","OW438"
"2023-05-07 02:00",22.044671392594,"Approved","OW438"
"2023-05-07 03:00",22.0266750303143,"Approved","OW438"
"2023-05-07 04:00",22.0196786680347,"Approved","OW438"
"2023-05-07 05:00",22.0176823057551,"Approved","OW438"
"2023-05-07 06:00",22.0226859434754,"Approved","OW438"
"2023-05-07 07:00",22.0266895811958,"Approved","OW438"
"2023-05-07 08:00",22.0426932189161,"Approved","OW438"
"2023-05-07 09:00",22.0586968566365,"Approved","OW438"
"2023-05-07 10:00",22.0747004943569,"Approved","OW438"
"2023-05-07 11:00",22.0897041320772,"Approved","OW438"
"2023-05-07 12:00",22.0927077697976,"Approved","OW438"
"2023-05-07 13:00",22.089711407518,"Approved","OW438"
"2023-05-07 14:00",22.0947150452383,"Approved","OW438"
"2023-05-07 15:00",22.1097186829587,"Approved","OW438"
"2023-05-07 16:00",22.127722320679,"Approved","OW438"
"2023-05-07 17:00",22.1437259583994,"Approved","OW438"
"2023-05-07 18:00",22.1547295961198,"Approved","OW438"
"2023-05-07 19:00",22.1717332338401,"Approved","OW438"
"2023-05-07 20:00",22.1887368715605,"Approved","OW438"
"2023-05-07 21:00",22.1967405092809,"Approved","OW438"
"2023-05-07 22:00",22.1967441470012,"Approved","OW438"
"2023-05-07 23:00",22.1887477847216,"Approved","OW438"
"2023-05-08 00:00",22.1727514224419,"Approved","OW438"
"2023-05-08 01:00",22.1477550601623,"Approved","OW438"
"2023-05-08 02:00",22.1187586978827,"Approved","OW438"
"2023-05-08 03:00",22.094762335603,"Approved","OW438"
"2023-05-08 04:00",22.0817659733234,"Approved","OW438"
"2023-05-08 05:00",22.0757696110437,"Approved","OW438"
"2023-05-08 06:00",22.0757732487641,"Approved","OW438"
"2023-05-08 07:00",22.0787768864845,"Approved","OW438"
"2023-05-08 08:00",22.0807805242048,"Approved","OW438"
"2023-05-08 09:00",22.0797841619252,"Approved","OW438"
"2023-05-08 10:00",22.0937877996456,"Approved","OW438"
"2023-05-08 11:00",22.1057914373659,"Approved","OW438"
"2023-05-08 12:00",22.1257950750863,"Approved","OW438"
"2023-05-08 13:00",22.1367987128066,"Approved","OW438"
"2023-05-08 14:00",22.140802350527,"Approved","OW438"
"2023-05-08 15:00",22.1528059882474,"Approved","OW438"
"2023-05-08 16:00",22.1698096259677,"Approved","OW438"
"2023-05-08 17:00",22.1888132636881,"Approved","OW438"
"2023-05-08 18:00",22.2028169014085,"Approved","OW438"
"2023-05-08 19:00",22.2128205391288,"Approved","OW438"
"2023-05-08 20:00",22.2208241768492,"Approved","OW438"
"2023-05-08 21:00",22.2238278145695,"Approved","OW438"
"2023-05-08 22:00",22.2228314522899,"Approved","OW438"
"2023-05-08 23:00",22.2168350900103,"Approved","OW438"
"2023-05-09 00:00",22.2088387277306,"Approved","OW438"
"2023-05-09 01:00",22.186842365451,"Approved","OW438"
"2023-05-09 02:00",22.1578460031713,"Approved","OW438"
"2023-05-09 03:00",22.1278496408917,"Approved","OW438"
"2023-05-09 04:00",22.1018532786121,"Approved","OW438"
"2023-05-09 05:00",22.0968569163324,"Approved","OW438"
"2023-05-09 06:00",22.0988605540528,"Approved","OW438"
"2023-05-09 07:00",22.1058641917732,"Approved","OW438"
"2023-05-09 08:00",22.1108678294935,"Approved","OW438"
"2023-05-09 09:00",22.1188714672139,"Approved","OW438"
"2023-05-09 10:00",22.1228751049342,"Approved","OW438"
"2023-05-09 11:00",22.1208787426546,"Approved","OW438"
"2023-05-09 12:00",22.112882380375,"Approved","OW438"
"2023-05-09 13:00",22.1048860180953,"Approved","OW438"
"2023-05-09 14:00",22.0978896558157,"Approved","OW438"
"2023-05-09 15:00",22.0958932935361,"Approved","OW438"
"2023-05-09 16:00",22.1038969312564,"Approved","OW438"
"2023-05-09 17:00",22.1159005689768,"Approved","OW438"
"2023-05-09 18:00",22.1289042066971,"Approved","OW438"
"2023-05-09 19:00",22.1429078444175,"Approved","OW438"
"2023-05-09 20:00",22.1519114821379,"Approved","OW438"
"2023-05-09 21:00",22.1579151198582,"Approved","OW438"
"2023-05-09 22:00",22.1609187575786,"Approved","OW438"
"2023-05-09 23:00",22.1609223952989,"Approved","OW438"
"2023-05-10 00:00",22.1799260330193,"Approved","OW438"
"2023-05-10 01:00",22.1829296707397,"Approved","OW438"
"2023-05-10 02:00",22.16693330846,"Approved","OW438"
"2023-05-10 03:00",22.1479369461804,"Approved","OW438"
"2023-05-10 04:00",22.1229405839008,"Approved","OW438"
"2023-05-10 05:00",22.0979442216211,"Approved","OW438"
"2023-05-10 06:00",22.0819478593415,"Approved","OW438"
"2023-05-10 07:00",22.0729514970618,"Approved","OW438"
"2023-05-10 08:00",22.0689551347822,"Approved","OW438"
"2023-05-10 09:00",22.0669587725026,"Approved","OW438"
"2023-05-10 10:00",22.0659624102229,"Approved","OW438"
"2023-05-10 11:00",22.0659660479433,"Approved","OW438"
"2023-05-10 12:00",22.0619696856637,"Approved","OW438"
"2023-05-10 13:00",22.054973323384,"Approved","OW438"
"2023-05-10 14:00",22.0539769611044,"Approved","OW438"
"2023-05-10 15:00",22.0499805988247,"Approved","OW438"
"2023-05-10 16:00",22.0499842365451,"Approved","OW438"
"2023-05-10 17:00",22.0599878742655,"Approved","OW438"
"2023-05-10 18:00",22.0849915119858,"Approved","OW438"
"2023-05-10 19:00",22.1029951497062,"Approved","OW438"
"2023-05-10 20:00",22.1129987874265,"Approved","OW438"
"2023-05-10 21:00",22.1290024251469,"Approved","OW438"
"2023-05-10 22:00",22.1570060628673,"Approved","OW438"
"2023-05-10 23:00",22.1720097005876,"Approved","OW438"
"2023-05-11 00:00",22.178013338308,"Approved","OW438"
"2023-05-11 01:00",22.1760169760284,"Approved","OW438"
"2023-05-11 02:00",22.1720206137487,"Approved","OW438"
"2023-05-11 03:00",22.1540242514691,"Approved","OW438"
"2023-05-11 04:00",22.1280278891894,"Approved","OW438"
"2023-05-11 05:00",22.1010315269098,"Approved","OW438"
"2023-05-11 06:00",22.0900351646302,"Approved","OW438"
"2023-05-11 07:00",22.0880388023505,"Approved","OW438"
"2023-05-11 08:00",22.0900424400709,"Approved","OW438"
"2023-05-11 09:00",22.1200460777913,"Approved","OW438"
"2023-05-11 10:00",22.1640497155116,"Approved","OW438"
"2023-05-11 11:00",22.192053353232,"Approved","OW438"
"2023-05-11 12:00",22.2050569909523,"Approved","OW438"
"2023-05-11 13:00",22.2110606286727,"Approved","OW438"
"2023-05-11 14:00",22.2130642663931,"Approved","OW438"
"2023-05-11 15:00",22.2120679041134,"Approved","OW438"
"2023-05-11 16:00",22.2120715418338,"Approved","OW438"
"2023-05-11 17:00",22.2150751795541,"Approved","OW438"
"2023-05-11 18:00",22.2260788172745,"Approved","OW438"
"2023-05-11 19:00",22.2400824549949,"Approved","OW438"
"2023-05-11 20:00",22.2620860927152,"Approved","OW438"
"2023-05-11 21:00",22.2950897304356,"Approved","OW438"
"2023-05-11 22:00",22.311093368156,"Approved","OW438"
"2023-05-11 23:00",22.3180970058763,"Approved","OW438"
"2023-05-12 00:00",22.3141006435967,"Approved","OW438"
"2023-05-12 01:00",22.321104281317,"Approved","OW438"
"2023-05-12 02:00",22.3301079190374,"Approved","OW438"
"2023-05-12 03:00",22.4431115567578,"Approved","OW438"
"2023-05-12 04:00",22.5791151944781,"Approved","OW438"
"2023-05-12 05:00",22.5781188321985,"Approved","OW438"
"2023-05-12 06:00",22.5401224699188,"Approved","OW438"
"2023-05-12 07:00",22.5001261076392,"Approved","OW438"
"2023-05-12 08:00",22.4731297453596,"Approved","OW438"
"2023-05-12 09:00",22.4551333830799,"Approved","OW438"
"2023-05-12 10:00",22.4441370208003,"Approved","OW438"
"2023-05-12 11:00",22.4431406585207,"Approved","OW438"
"2023-05-12 12:00",22.442144296241,"Approved","OW438"
"2023-05-12 13:00",22.4431479339614,"Approved","OW438"
"2023-05-12 14:00",22.4421515716817,"Approved","OW438"
"2023-05-12 15:00",22.4361552094021,"Approved","OW438"
"2023-05-12 16:00",22.4091588471225,"Approved","OW438"
"2023-05-12 17:00",22.4061624848428,"Approved","OW438"
"2023-05-12 18:00",22.4181661225632,"Approved","OW438"
"2023-05-12 19:00",22.4291697602836,"Approved","OW438"
"2023-05-12 20:00",22.4381733980039,"Approved","OW438"
"2023-05-12 21:00",22.4491770357243,"Approved","OW438"
"2023-05-12 22:00",22.4531806734446,"Approved","OW438"
"2023-05-12 23:00",22.453184311165,"Approved","OW438"
"2023-05-13 00:00",22.4551879488854,"Approved","OW438"
"2023-05-13 01:00",22.4691915866057,"Approved","OW438"
"2023-05-13 02:00",22.5611952243261,"Approved","OW438"
"2023-05-13 03:00",22.6611988620465,"Approved","OW438"
"2023-05-13 04:00",22.7542024997668,"Approved","OW438"
"2023-05-13 05:00",22.7752061374872,"Approved","OW438"
"2023-05-13 06:00",22.7392097752075,"Approved","OW438"
"2023-05-13 07:00",22.6992134129279,"Approved","OW438"
"2023-05-13 08:00",22.6612170506483,"Approved","OW438"
"2023-05-13 09:00",22.6332206883686,"Approved","OW438"
"2023-05-13 10:00",22.616224326089,"Approved","OW438"
"2023-05-13 11:00",22.6082279638093,"Approved","OW438"
"2023-05-13 12:00",22.6082316015297,"Approved","OW438"
"2023-05-13 13:00",22.6102352392501,"Approved","OW438"
"2023-05-13 14:00",22.6222388769704,"Approved","OW438"
"2023-05-13 15:00",22.6352425146908,"Approved","OW438"
"2023-05-13 16:00",22.7692461524112,"Approved","OW438"
"2023-05-13 17:00",22.9032497901315,"Approved","OW438"
"2023-05-13 18:00",23.0182534278519,"Approved","OW438"
"2023-05-13 19:00",23.1202570655722,"Approved","OW438"
"2023-05-13 20:00",23.1672607032926,"Approved","OW438"
"2023-05-13 21:00",23.173264341013,"Approved","OW438"
"2023-05-13 22:00",23.1672679787333,"Approved","OW438"
"2023-05-13 23:00",23.1482716164537,"Approved","OW438"
"2023-05-14 00:00",23.1302752541741,"Approved","OW438"
"2023-05-14 01:00",23.1262788918944,"Approved","OW438"
"2023-05-14 02:00",23.1272825296148,"Approved","OW438"
"2023-05-14 03:00",23.1172861673351,"Approved","OW438"
"2023-05-14 04:00",23.1012898050555,"Approved","OW438"
"2023-05-14 05:00",23.0782934427759,"Approved","OW438"
"2023-05-14 06:00",23.0542970804962,"Approved","OW438"
"2023-05-14 07:00",23.0193007182166,"Approved","OW438"
"2023-05-14 08:00",22.9853043559369,"Approved","OW438"
"2023-05-14 09:00",22.9533079936573,"Approved","OW438"
"2023-05-14 10:00",22.9343116313777,"Approved","OW438"
"2023-05-14 11:00",22.925315269098,"Approved","OW438"
"2023-05-14 12:00",22.9233189068184,"Approved","OW438"
"2023-05-14 13:00",22.9253225445388,"Approved","OW438"
"2023-05-14 14:00",22.9283261822591,"Approved","OW438"
"2023-05-14 15:00",22.9303298199795,"Approved","OW438"
"2023-05-14 16:00",22.9253334576998,"Approved","OW438"
"2023-05-14 17:00",22.9233370954202,"Approved","OW438"
"2023-05-14 18:00",22.9193407331406,"Approved","OW438"
"2023-05-14 19:00",22.9063443708609,"Approved","OW438"
"2023-05-14 20:00",22.9023480085813,"Approved","OW438"
"2023-05-14 21:00",22.9153516463017,"Approved","OW438"
"2023-05-14 22:00",22.915355284022,"Approved","OW438"
"2023-05-14 23:00",22.9173589217424,"Approved","OW438"
"2023-05-15 00:00",22.9263625594627,"Approved","OW438"
"2023-05-15 01:00",22.9393661971831,"Approved","OW438"
"2023-05-15 02:00",22.9623698349035,"Approved","OW438"
"2023-05-15 03:00",22.9923734726238,"Approved","OW438"
"2023-05-15 04:00",23.0183771103442,"Approved","OW438"
"2023-05-15 05:00",23.0333807480645,"Approved","OW438"
"2023-05-15 06:00",23.0393843857849,"Approved","OW438"
"2023-05-15 07:00",23.0263880235053,"Approved","OW438"
"2023-05-15 08:00",23.0013916612256,"Approved","OW438"
"2023-05-15 09:00",22.975395298946,"Approved","OW438"
"2023-05-15 10:00",22.9733989366664,"Approved","OW438"
"2023-05-15 11:00",22.9954025743867,"Approved","OW438"
"2023-05-15 12:00",23.0164062121071,"Approved","OW438"
"2023-05-15 13:00",23.0294098498274,"Approved","OW438"
"2023-05-15 14:00",23.0504134875478,"Approved","OW438"
"2023-05-15 15:00",23.0674171252682,"Approved","OW438"
"2023-05-15 16:00",23.1014207629885,"Approved","OW438"
"2023-05-15 17:00",23.1644244007089,"Approved","OW438"
"2023-05-15 18:00",23.1714280384293,"Approved","OW438"
"2023-05-15 19:00",23.1554316761496,"Approved","OW438"
"2023-05-15 20:00",23.13143531387,"Approved","OW438"
"2023-05-15 21:00",23.1104389515903,"Approved","OW438"
"2023-05-15 22:00",23.0834425893107,"Approved","OW438"
"2023-05-15 23:00",23.0604462270311,"Approved","OW438"
"2023-05-16 00:00",23.0424498647514,"Approved","OW438"
"2023-05-16 01:00",23.0324535024718,"Approved","OW438"
"2023-05-16 02:00",23.0354571401921,"Approved","OW438"
"2023-05-16 03:00",23.0394607779125,"Approved","OW438"
"2023-05-16 04:00",23.0404644156329,"Approved","OW438"
"2023-05-16 05:00",23.0324680533532,"Approved","OW438"
"2023-05-16 06:00",23.0154716910736,"Approved","OW438"
"2023-05-16 07:00",22.993475328794,"Approved","OW438"
"2023-05-16 08:00",22.9684789665143,"Approved","OW438"
"2023-05-16 09:00",22.9404826042347,"Approved","OW438"
"2023-05-16 10:00",22.919486241955,"Approved","OW438"
"2023-05-16 11:00",22.9064898796754,"Approved","OW438"
"2023-05-16 12:00",22.9014935173958,"Approved","OW438"
"2023-05-16 13:00",22.9064971551161,"Approved","OW438"
"2023-05-16 14:00",22.9175007928365,"Approved","OW438"
"2023-05-16 15:00",22.9275044305569,"Approved","OW438"
"2023-05-16 16:00",22.9635080682772,"Approved","OW438"
"2023-05-16 17:00",22.9925117059976,"Approved","OW438"
"2023-05-16 18:00",23.0075153437179,"Approved","OW438"
"2023-05-16 19:00",23.0075189814383,"Approved","OW438"
"2023-05-16 20:00",22.9925226191587,"Approved","OW438"
"2023-05-16 21:00",22.974526256879,"Approved","OW438"
"2023-05-16 22:00",22.9645298945994,"Approved","OW438"
"2023-05-16 23:00",22.9575335323197,"Approved","OW438"
"2023-05-17 00:00",22.9475371700401,"Approved","OW438"
"2023-05-17 01:00",22.9415408077605,"Approved","OW438"
"2023-05-17 02:00",22.9455444454808,"Approved","OW438"
"2023-05-17 03:00",22.9685480832012,"Approved","OW438"
"2023-05-17 04:00",22.9845517209216,"Approved","OW438"
"2023-05-17 05:00",22.9905553586419,"Approved","OW438"
"2023-05-17 06:00",22.9865589963623,"Approved","OW438"
"2023-05-17 07:00",22.9765626340826,"Approved","OW438"
"2023-05-17 08:00",22.954566271803,"Approved","OW438"
"2023-05-17 09:00",22.9325699095234,"Approved","OW438"
"2023-05-17 10:00",22.9095735472437,"Approved","OW438"
"2023-05-17 11:00",22.8915771849641,"Approved","OW438"
"2023-05-17 12:00",22.8835808226845,"Approved","OW438"
"2023-05-17 13:00",22.8865844604048,"Approved","OW438"
"2023-05-17 14:00",22.8965880981252,"Approved","OW438"
"2023-05-17 15:00",22.9075917358455,"Approved","OW438"
"2023-05-17 16:00",22.9145953735659,"Approved","OW438"
"2023-05-17 17:00",22.9165990112863,"Approved","OW438"
"2023-05-17 18:00",22.9206026490066,"Approved","OW438"
"2023-05-17 19:00",22.914606286727,"Approved","OW438"
"2023-05-17 20:00",22.9006099244473,"Approved","OW438"
"2023-05-17 21:00",22.8826135621677,"Approved","OW438"
"2023-05-17 22:00",22.8536171998881,"Approved","OW438"
"2023-05-17 23:00",22.8196208376084,"Approved","OW438"
"2023-05-18 00:00",22.7896244753288,"Approved","OW438"
"2023-05-18 01:00",22.7666281130492,"Approved","OW438"
"2023-05-18 02:00",22.7546317507695,"Approved","OW438"
"2023-05-18 03:00",22.7546353884899,"Approved","OW438"
"2023-05-18 04:00",22.7676390262102,"Approved","OW438"
"2023-05-18 05:00",22.7766426639306,"Approved","OW438"
"2023-05-18 06:00",22.777646301651,"Approved","OW438"
"2023-05-18 07:00",22.7716499393713,"Approved","OW438"
"2023-05-18 08:00",22.7576535770917,"Approved","OW438"
"2023-05-18 09:00",22.743657214812,"Approved","OW438"
"2023-05-18 10:00",22.7246608525324,"Approved","OW438"
"2023-05-18 11:00",22.7036644902528,"Approved","OW438"
"2023-05-18 12:00",22.6926681279731,"Approved","OW438"
"2023-05-18 13:00",22.6926717656935,"Approved","OW438"
"2023-05-18 14:00",22.7026754034139,"Approved","OW438"
"2023-05-18 15:00",22.7286790411342,"Approved","OW438"
"2023-05-18 16:00",22.8076826788546,"Approved","OW438"
"2023-05-18 17:00",22.9556863165749,"Approved","OW438"
"2023-05-18 18:00",23.0616899542953,"Approved","OW438"
"2023-05-18 19:00",23.0766935920157,"Approved","OW438"
"2023-05-18 20:00",23.073697229736,"Approved","OW438"
"2023-05-18 21:00",23.0567008674564,"Approved","OW438"
"2023-05-18 22:00",23.0287045051768,"Approved","OW438"
"2023-05-18 23:00",22.9907081428971,"Approved","OW438"
"2023-05-19 00:00",22.9527117806175,"Approved","OW438"
"2023-05-19 01:00",22.9277154183378,"Approved","OW438"
"2023-05-19 02:00",22.9087190560582,"Approved","OW438"
"2023-05-19 03:00",22.9207226937786,"Approved","OW438"
"2023-05-19 04:00",22.9687263314989,"Approved","OW438"
"2023-05-19 05:00",22.9807299692193,"Approved","OW438"
"2023-05-19 06:00",22.9887336069397,"Approved","OW438"
"2023-05-19 07:00",22.98573724466,"Approved","OW438"
"2023-05-19 08:00",22.9807408823804,"Approved","OW438"
"2023-05-19 09:00",22.9957445201007,"Approved","OW438"
"2023-05-19 10:00",22.9977481578211,"Approved","OW438"
"2023-05-19 11:00",22.9887517955415,"Approved","OW438"
"2023-05-19 12:00",22.9767554332618,"Approved","OW438"
"2023-05-19 13:00",22.9747590709822,"Approved","OW438"
"2023-05-19 14:00",22.9837627087025,"Approved","OW438"
"2023-05-19 15:00",22.9997663464229,"Approved","OW438"
"2023-05-19 16:00",23.0427699841433,"Approved","OW438"
"2023-05-19 17:00",23.0947736218636,"Approved","OW438"
"2023-05-19 18:00",23.135777259584,"Approved","OW438"
"2023-05-19 19:00",23.1477808973044,"Approved","OW438"
"2023-05-19 20:00",23.1427845350247,"Approved","OW438"
"2023-05-19 21:00",23.1287881727451,"Approved","OW438"
"2023-05-19 22:00",23.1067918104654,"Approved","OW438"
"2023-05-19 23:00",23.0717954481858,"Approved","OW438"
"2023-05-20 00:00",23.0377990859062,"Approved","OW438"
"2023-05-20 01:00",23.0058027236265,"Approved","OW438"
"2023-05-20 02:00",22.9778063613469,"Approved","OW438"
"2023-05-20 03:00",22.9608099990673,"Approved","OW438"
"2023-05-20 04:00",22.9578136367876,"Approved","OW438"
"2023-05-20 05:00",22.962817274508,"Approved","OW438"
"2023-05-20 06:00",22.9668209122283,"Approved","OW438"
"2023-05-20 07:00",22.9928245499487,"Approved","OW438"
"2023-05-20 08:00",23.0108281876691,"Approved","OW438"
"2023-05-20 09:00",23.0128318253894,"Approved","OW438"
"2023-05-20 10:00",23.0298354631098,"Approved","OW438"
"2023-05-20 11:00",23.0398391008301,"Approved","OW438"
"2023-05-20 12:00",23.0368427385505,"Approved","OW438"
"2023-05-20 13:00",23.0328463762709,"Approved","OW438"
"2023-05-20 14:00",23.0398500139912,"Approved","OW438"
"2023-05-20 15:00",23.0518536517116,"Approved","OW438"
"2023-05-20 16:00",23.069857289432,"Approved","OW438"
"2023-05-20 17:00",23.0848609271523,"Approved","OW438"
"2023-05-20 18:00",23.0948645648727,"Approved","OW438"
"2023-05-20 19:00",23.101868202593,"Approved","OW438"
"2023-05-20 20:00",23.0818718403134,"Approved","OW438"
"2023-05-20 21:00",23.0818754780338,"Approved","OW438"
"2023-05-20 22:00",23.0788791157541,"Approved","OW438"
"2023-05-20 23:00",23.0628827534745,"Approved","OW438"
"2023-05-21 00:00",23.0318863911948,"Approved","OW438"
"2023-05-21 01:00",22.9968900289152,"Approved","OW438"
"2023-05-21 02:00",22.9618936666356,"Approved","OW438"
"2023-05-21 03:00",22.9378973043559,"Approved","OW438"
"2023-05-21 04:00",22.9489009420763,"Approved","OW438"
"2023-05-21 05:00",23.0179045797967,"Approved","OW438"
"2023-05-21 06:00",23.029908217517,"Approved","OW438"
"2023-05-21 07:00",23.0299118552374,"Approved","OW438"
"2023-05-21 08:00",23.0269154929577,"Approved","OW438"
"2023-05-21 09:00",23.0189191306781,"Approved","OW438"
"2023-05-21 10:00",23.0079227683985,"Approved","OW438"
"2023-05-21 11:00",22.9919264061188,"Approved","OW438"
"2023-05-21 12:00",22.9779300438392,"Approved","OW438"
"2023-05-21 13:00",22.9669336815596,"Approved","OW438"
"2023-05-21 14:00",23.0179373192799,"Approved","OW438"
"2023-05-21 15:00",23.1139409570003,"Approved","OW438"
"2023-05-21 16:00",23.2129445947206,"Approved","OW438"
"2023-05-21 17:00",23.306948232441,"Approved","OW438"
"2023-05-21 18:00",23.3809518701614,"Approved","OW438"
"2023-05-21 19:00",23.3869555078817,"Approved","OW438"
"2023-05-21 20:00",23.3749591456021,"Approved","OW438"
"2023-05-21 21:00",23.3579627833224,"Approved","OW438"
"2023-05-21 22:00",23.3639664210428,"Approved","OW438"
"2023-05-21 23:00",23.3569700587632,"Approved","OW438"
"2023-05-22 00:00",23.3329736964835,"Approved","OW438"
"2023-05-22 01:00",23.2979773342039,"Approved","OW438"
"2023-05-22 02:00",23.2599809719243,"Approved","OW438"
"2023-05-22 03:00",23.2279846096446,"Approved","OW438"
"2023-05-22 04:00",23.215988247365,"Approved","OW438"
"2023-05-22 05:00",23.2079918850853,"Approved","OW438"
"2023-05-22 06:00",23.2019955228057,"Approved","OW438"
"2023-05-22 07:00",23.1989991605261,"Approved","OW438"
"2023-05-22 08:00",23.1980027982464,"Approved","OW438"
"2023-05-22 09:00",23.1960064359668,"Approved","OW438"
"2023-05-22 10:00",23.1920100736872,"Approved","OW438"
"2023-05-22 11:00",23.1810137114075,"Approved","OW438"
"2023-05-22 12:00",23.1660173491279,"Approved","OW438"
"2023-05-22 13:00",23.1520209868482,"Approved","OW438"
"2023-05-22 14:00",23.1430246245686,"Approved","OW438"
"2023-05-22 15:00",23.142028262289,"Approved","OW438"
"2023-05-22 16:00",23.1740319000093,"Approved","OW438"
"2023-05-22 17:00",23.2020355377297,"Approved","OW438"
"2023-05-22 18:00",23.2160391754501,"Approved","OW438"
"2023-05-22 19:00",23.2280428131704,"Approved","OW438"
"2023-05-22 20:00",23.2350464508908,"Approved","OW438"
"2023-05-22 21:00",23.2360500886111,"Approved","OW438"
"2023-05-22 22:00",23.2310537263315,"Approved","OW438"
"2023-05-22 23:00",23.2250573640519,"Approved","OW438"
"2023-05-23 00:00",23.2110610017722,"Approved","OW438"
"2023-05-23 01:00",23.1860646394926,"Approved","OW438"
"2023-05-23 02:00",23.1530682772129,"Approved","OW438"
"2023-05-23 03:00",23.1200719149333,"Approved","OW438"
"2023-05-23 04:00",23.0950755526537,"Approved","OW438"
"2023-05-23 05:00",23.076079190374,"Approved","OW438"
"2023-05-23 06:00",23.0650828280944,"Approved","OW438"
"2023-05-23 07:00",23.0620864658148,"Approved","OW438"
"2023-05-23 08:00",23.0650901035351,"Approved","OW438"
"2023-05-23 09:00",23.0940937412555,"Approved","OW438"
"2023-05-23 10:00",23.1340973789758,"Approved","OW438"
"2023-05-23 11:00",23.1501010166962,"Approved","OW438"
"2023-05-23 12:00",23.1511046544166,"Approved","OW438"
"2023-05-23 13:00",23.1451082921369,"Approved","OW438"
"2023-05-23 14:00",23.1371119298573,"Approved","OW438"
"2023-05-23 15:00",23.1361155675777,"Approved","OW438"
"2023-05-23 16:00",23.143119205298,"Approved","OW438"
"2023-05-23 17:00",23.1521228430184,"Approved","OW438"
"2023-05-23 18:00",23.1661264807387,"Approved","OW438"
"2023-05-23 19:00",23.1771301184591,"Approved","OW438"